Weather in Guzar

Uzbekistan     38˚37′36″N   66˚15′09″E
temp.,
°C
wind,
m/s
gust,
m/s
humid.,
%
clouds,
%
prec.,
mm/h
press.,
hPa
HPBL,
m
3 december, thu
thu323:00+7˚nw225093 0.0 102636
02:00+5˚wnw115880 0.0 102722
05:00+4˚nnw226043 0.0 102722
08:00+4˚nw126297 0.0 102822
11:00+8˚n224599 0.0 1027257
14:00+11˚nnw2240100 0.0 1026522
17:00+10˚nnw3446100 0.0 1026140
20:00+7˚nnw2348100 0.0 102786
4 december, fri
fri423:00+6˚nw1149100 0.0 102761
02:00+5˚nw2348100 0.0 1027110
05:00+4˚nw1246100 0.0 102852
08:00+3˚wnw224599 0.0 102956
11:00+6˚w223193 0.0 1030348
14:00+8˚nw232092 0.0 1028750
17:00+7˚nw232376 0.0 102955
20:00+3˚nnw24290 0.0 1030111
5 december, sat
sat523:00+1˚nnw12340 0.0 103022
02:00nne12330 0.0 103021
05:00nne12340 0.0 102922
08:00−1˚nne22340 0.0 103021
11:00+5˚n11250 0.0 1029248
14:00+8˚nw21240 0.0 1026630
17:00+6˚nnw23268 0.0 102659
20:00+4˚n232186 0.0 102730
6 december, sun
sun623:00+2˚nne122267 0.0 102722
02:00+1˚ne12265 0.0 102822
05:00+1˚ne223313 0.0 102722
08:00+1˚ne22450 0.0 102822
11:00+8˚nne11418 0.0 1027240
14:00+11˚n333726 0.0 1024691
17:00+8˚n354159 0.0 1023105
20:00+6˚nne235189 0.0 102330
7 december, mon
mon723:00+6˚ne125794 0.0 102222
02:00+6˚nw0158100 0.0 102122
05:00+6˚w1256100 0.0 102124
08:00+5˚nw3551100 0.1 1023185
11:00+6˚w2248100 0.3 1025430
14:00+2˚wsw2286100 0.3 1026267
17:00+2˚n2288100 0.7 1027268
20:00+2˚wnw1291100 0.1 1029159